Wind_Gust
23 22 22 23 21 21 20 20 19 19 17 17 16 15 14 12 13 13 15 16 17 18 17 17 17 16 16 15 15 15 14 14 13 13 12 12 12 11 13 13 13 11 10 10 11 10 10 10 10 10 8 8 8 9 9 10 10 9 10 10 11 10 12 14 18 23 20 16 19 20 20 20 24 21 24 24 24 24 19 23 24 22 23 22 24
24 23 21 21 21 21 20 19 20 20 18 17 17 17 14 13 13 14 14 16 17 19 18 17 16 17 16 16 15 15 15 15 14 13 13 13 13 13 13 13 12 11 10 12 12 11 9 10 10 10 8 9 8 12 10 10 11 12 11 12 12 12 11 15 17 19 24 20 20 20 21 19 24 22 24 25 24 24 26 25 25 23 23 22 24
24 23 22 21 21 21 21 21 21 19 18 17 17 17 16 14 14 15 15 15 17 18 18 18 18 17 17 16 16 15 16 16 14 14 14 14 14 13 13 13 12 12 13 13 14 12 12 11 11 11 10 10 10 10 9 10 11 12 13 12 12 13 13 13 17 19 21 24 21 23 22 22 22 24 24 24 25 26 26 26 25 25 24 22 24
25 24 23 22 22 21 22 22 21 21 20 19 18 17 17 16 16 16 16 15 18 17 17 18 18 18 17 17 17 16 17 16 16 16 16 15 14 15 14 14 14 13 13 14 13 13 12 12 12 11 11 11 12 11 11 10 11 11 13 11 11 13 13 13 14 17 20 25 23 24 23 23 24 22 23 24 26 27 26 26 24 25 26 25 23
25 25 24 23 23 23 22 22 22 21 20 19 18 18 18 17 16 17 16 16 17 17 18 18 18 19 19 19 19 18 17 17 17 17 15 14 14 14 14 14 14 14 14 13 10 13 13 13 13 13 13 13 12 13 12 10 13 11 13 13 13 12 13 14 16 16 19 23 26 24 23 23 24 23 22 25 27 28 27 26 25 26 26 25 25
25 24 25 25 25 24 23 22 22 22 22 21 19 18 18 18 17 17 18 18 17 18 19 20 20 21 20 20 19 19 18 17 18 18 17 16 15 14 14 14 15 15 15 15 15 14 14 14 14 14 14 14 13 12 12 12 12 12 12 13 14 13 13 15 15 17 19 22 22 27 22 24 24 23 22 22 26 29 28 28 26 25 25 26 26
25 25 25 25 25 25 26 25 23 22 22 21 19 19 20 18 19 19 18 18 19 19 19 20 19 20 20 19 19 18 18 18 18 17 17 17 17 16 15 15 15 15 15 16 15 15 15 15 14 14 15 14 14 13 13 12 13 13 13 12 13 13 15 15 16 18 19 21 22 21 24 22 23 25 24 23 25 25 27 32 31 28 26 27 29
26 26 25 25 25 26 25 24 24 23 22 21 21 20 20 19 19 18 17 18 19 20 21 21 19 20 20 19 19 18 18 18 18 18 18 18 17 17 16 16 16 16 15 16 15 16 16 16 16 16 16 15 14 13 12 13 12 13 13 12 12 14 15 16 16 18 19 20 22 23 22 24 23 21 25 24 25 24 24 28 31 34 33 29 27
27 27 26 26 26 25 24 24 23 23 23 23 21 21 20 19 18 20 18 18 18 19 19 19 20 21 21 20 21 20 20 19 19 20 19 19 18 17 17 17 17 16 16 17 17 17 17 17 17 17 15 12 12 10 10 9 13 14 13 12 13 14 15 16 17 18 19 20 22 21 23 24 23 25 27 26 26 28 29 26 30 29 31 33 30
27 27 27 27 25 25 25 23 23 23 23 23 22 21 20 20 19 19 19 19 19 18 18 19 20 21 21 22 21 20 20 18 15 15 12 18 18 17 16 16 17 16 16 16 17 18 18 17 17 13 13 13 13 13 12 12 14 17 16 14 14 14 15 16 18 18 20 22 22 23 24 24 25 24 26 25 26 26 27 28 30 30 30 30 29
27 27 28 27 26 26 26 25 25 25 24 23 22 22 22 21 20 20 19 18 18 18 18 20 21 21 22 21 21 20 19 18 14 15 15 12 14 15 16 16 16 17 17 17 17 18 18 19 17 15 17 15 20 14 13 15 15 15 16 14 12 17 16 17 17 17 20 22 22 22 23 25 24 24 25 27 26 27 28 29 29 30 30 32 37
28 28 28 26 26 27 26 26 26 25 25 25 24 23 22 22 21 20 19 18 18 17 19 21 20 19 20 20 20 19 18 12 16 18 16 15 12 16 16 16 16 17 18 18 18 17 17 17 17 17 18 19 19 21 22 19 17 16 15 14 13 15 14 17 18 19 19 22 23 22 23 23 25 25 25 26 28 28 27 28 28 29 31 31 32
29 29 28 27 27 26 26 27 27 26 26 25 24 23 23 23 22 20 20 18 17 19 19 19 19 20 19 21 19 18 19 15 18 19 19 18 17 15 18 16 17 17 17 18 18 18 16 16 17 18 18 14 20 21 19 20 19 17 16 16 16 16 14 16 17 22 20 22 22 23 22 23 24 24 24 28 28 28 28 29 28 29 29 31 30
29 30 29 29 28 27 27 27 27 26 25 24 23 24 23 23 20 19 18 18 19 18 18 19 19 21 20 18 20 20 21 17 20 20 20 20 18 17 19 18 17 17 18 18 18 17 17 17 18 18 17 17 19 19 19 19 17 21 22 21 21 21 19 20 18 21 23 24 22 24 21 20 24 23 24 24 27 29 30 29 28 30 31 31 31
29 28 29 29 29 28 28 27 27 26 25 24 23 24 24 22 21 20 19 19 20 20 20 22 21 18 20 23 24 22 22 18 22 21 20 19 18 14 20 19 18 18 18 18 18 18 17 19 18 19 18 18 18 17 18 17 17 18 18 18 19 19 18 20 22 23 23 23 22 21 21 20 21 22 23 23 24 26 26 29 31 31 32 30 28
29 28 28 28 29 28 28 27 26 25 25 25 25 25 23 23 22 20 19 19 19 19 17 17 20 23 22 22 21 22 20 21 21 21 19 18 17 20 21 20 19 19 19 18 19 19 19 19 19 20 20 19 13 13 14 17 17 19 19 19 19 19 18 13 12 13 16 17 18 19 20 19 16 22 23 24 24 24 26 28 27 25 27 28 28
28 27 27 28 28 28 27 27 26 26 26 26 26 25 24 23 21 19 18 18 21 21 19 20 20 21 21 21 22 21 17 19 20 20 19 19 17 21 21 21 20 20 20 18 19 19 19 20 20 20 19 20 13 12 13 14 19 19 19 19 19 17 18 14 13 14 14 15 18 19 21 22 22 22 21 20 22 21 26 27 24 25 27 28 29
27 26 27 27 27 27 27 27 26 26 25 26 26 24 23 21 19 17 21 23 21 19 18 18 18 19 20 22 22 20 20 19 21 19 20 22 20 24 23 22 20 20 19 19 19 19 19 17 16 20 20 20 10 14 12 17 19 19 20 20 19 19 17 14 12 12 14 17 18 19 20 20 21 21 21 21 21 18 23 24 25 25 26 25 33
26 27 26 25 25 25 25 25 25 25 25 25 24 23 22 20 18 17 19 18 19 17 18 19 18 20 19 22 18 22 19 18 22 20 21 22 24 23 23 22 21 20 20 19 19 19 19 18 20 21 19 16 10 13 14 18 19 19 20 19 20 19 17 11 12 14 14 13 14 15 17 17 21 21 20 18 19 19 23 23 23 23 25 27 29
26 25 24 23 23 23 22 22 23 23 25 24 22 22 21 19 18 18 15 16 16 17 16 21 20 19 20 21 20 23 20 17 23 22 22 23 24 25 23 22 22 21 20 20 18 18 18 19 20 21 20 18 13 13 14 17 20 20 19 20 19 19 12 10 13 13 15 15 16 16 19 20 19 18 18 18 18 17 18 19 20 22 24 26 29
23 23 22 22 22 23 22 22 23 23 23 22 19 18 18 18 16 17 18 16 17 17 19 17 19 20 18 18 18 18 20 19 22 25 23 24 24 22 25 24 22 21 20 19 20 19 19 19 19 19 24 21 18 15 14 17 17 22 20 20 19 16 11 15 16 13 14 15 15 17 18 18 18 18 17 18 18 18 18 18 19 20 22 26 28
20 20 21 21 22 21 22 20 20 20 19 20 19 17 16 16 16 15 17 21 19 19 18 19 20 20 17 17 17 18 16 17 17 23 23 24 24 26 24 24 21 20 20 20 19 18 19 18 18 15 22 19 18 17 16 16 18 22 23 14 16 15 17 15 14 13 14 15 15 16 18 19 20 19 18 18 18 18 19 21 20 20 21 22 25
20 20 21 22 20 22 25 23 19 17 17 18 18 18 15 15 15 15 18 18 19 20 19 19 18 18 17 17 17 18 17 19 16 19 22 23 24 25 25 21 13 19 20 21 19 20 18 17 16 13 16 15 15 15 16 17 14 20 15 14 15 15 13 14 13 15 17 15 14 16 17 18 19 19 18 19 19 19 21 21 21 21 22 22 22
17 18 19 24 27 27 26 24 19 16 16 16 16 17 17 16 17 17 17 24 23 19 18 18 19 19 19 18 16 17 18 17 15 16 20 25 23 25 26 25 16 19 21 22 21 21 20 18 14 13 13 13 14 15 15 15 19 14 16 16 14 12 13 14 15 17 17 16 15 16 18 17 17 18 18 19 20 21 22 22 21 21 22 23 23
16 18 20 21 23 23 21 21 19 18 17 16 16 17 17 18 18 16 17 18 18 19 18 18 18 18 17 17 16 16 17 18 17 20 18 21 23 24 24 23 23 17 22 22 20 22 14 12 11 11 12 13 14 12 12 14 17 15 15 14 13 15 16 17 19 18 18 18 16 17 18 18 17 16 16 17 19 20 19 19 19 20 21 22 22
18 18 17 17 18 19 19 19 19 17 15 15 16 17 16 16 16 16 17 17 18 18 18 18 17 16 16 16 16 15 16 16 17 17 18 16 17 20 22 21 20 21 21 22 16 15 14 13 14 13 12 13 15 17 18 18 15 19 18 15 16 17 17 18 19 20 20 17 16 17 18 17 16 15 16 18 20 19 19 20 21 21 20 22 24
16 17 18 18 17 17 17 17 15 13 13 14 15 15 14 15 15 16 16 16 16 16 16 16 15 16 16 15 14 15 15 16 16 17 20 22 22 21 23 23 17 15 21 26 20 25 25 21 19 13 12 11 14 10 12 11 14 17 15 16 17 18 19 20 21 21 18 16 16 18 17 16 13 14 16 18 20 18 17 18 20 21 21 21 22
17 17 17 17 17 16 17 8 12 13 13 14 14 14 13 14 16 17 19 18 16 15 15 15 16 17 16 14 13 13 15 16 16 17 18 19 19 21 23 22 23 24 25 24 23 21 21 11 14 19 20 21 21 19 20 20 19 16 15 15 17 18 18 14 15 20 18 16 16 15 14 12 14 15 16 17 20 18 16 18 19 21 20 21 23
13 13 14 15 14 13 13 15 15 13 13 13 12 11 14 16 15 12 10 11 16 19 19 15 16 14 14 14 14 14 13 15 21 12 18 13 20 18 20 21 20 20 19 14 16 16 14 16 17 18 19 19 18 19 19 19 18 15 17 17 17 18 19 20 23 23 20 15 16 15 14 13 14 14 16 18 17 17 16 17 18 19 20 19 20
12 13 13 14 14 14 14 15 14 14 14 14 13 11 8 9 12 13 12 9 11 9 6 16 15 14 13 13 14 16 16 17 12 13 19 19 20 20 17 15 14 16 12 15 12 16 17 17 18 19 19 18 19 19 18 17 14 14 17 13 18 19 20 22 23 20 16 16 15 13 14 13 14 14 15 17 17 16 17 14 19 18 19 19 20
13 13 12 12 11 11 12 12 11 11 11 10 10 11 13 11 5 8 9 8 8 9 8 8 9 10 14 15 13 13 15 11 11 15 17 19 20 20 19 18 16 15 12 14 14 18 18 18 20 19 19 17 19 17 16 14 15 15 17 16 18 21 20 20 21 18 16 15 15 15 14 14 15 13 15 16 16 18 18 18 18 18 18 18 18
15 15 16 14 13 13 13 12 10 9 10 9 9 8 9 11 14 7 9 9 9 12 13 14 14 13 14 15 13 17 15 18 17 15 15 15 16 17 18 18 18 14 12 12 13 17 19 19 20 20 17 18 20 17 15 16 16 16 16 17 20 19 20 21 21 19 16 14 14 14 15 15 14 13 14 14 14 16 17 17 18 17 17 17 16
19 17 17 15 14 13 13 14 12 11 11 10 10 10 10 11 11 12 10 5 10 13 14 15 16 15 15 16 17 16 14 13 15 15 14 14 14 15 16 16 14 12 11 14 17 16 19 20 21 19 19 20 17 14 14 15 16 16 18 20 19 20 20 19 15 16 15 16 14 14 14 13 12 13 10 13 14 15 15 17 18 16 16 17 17
21 19 18 16 18 17 17 17 17 16 16 16 16 15 13 12 12 13 11 8 9 8 9 14 15 15 17 19 19 18 17 17 15 14 14 14 14 13 12 13 9 13 17 19 19 21 21 21 22 21 20 19 15 12 15 17 17 19 21 21 21 19 18 16 16 17 16 17 17 13 14 15 12 14 14 13 12 13 15 16 17 17 16 16 17
20 15 14 14 18 18 18 17 16 15 15 14 12 11 11 10 9 10 12 13 14 14 11 12 12 16 19 13 14 17 17 17 16 15 14 13 12 11 9 12 12 14 17 20 22 23 22 22 22 20 19 17 17 14 17 19 21 21 20 19 19 18 17 17 17 16 17 17 16 16 16 15 14 12 12 12 13 14 15 16 16 16 16 16 16
20 19 20 20 20 18 16 15 12 11 11 12 11 12 12 13 12 12 11 10 10 12 10 10 11 7 13 15 15 14 16 17 16 15 14 13 12 13 14 16 17 20 20 20 22 22 21 21 20 18 17 17 19 20 20 20 19 19 19 18 18 18 17 17 16 17 17 16 16 16 14 15 14 13 12 13 13 15 16 16 15 14 14 15 16
16 16 15 12 12 12 12 11 11 10 6 9 10 11 11 9 9 9 8 9 10 10 12 11 11 12 10 12 14 14 13 14 14 12 11 10 14 17 18 17 19 19 19 19 18 16 18 20 20 21 21 21 20 19 18 18 17 17 13 19 18 17 17 16 16 12 16 15 16 17 16 15 14 14 14 13 11 13 14 15 15 14 15 12 11
15 13 12 11 10 11 12 14 13 8 13 12 12 12 12 12 12 11 11 11 11 11 12 11 6 12 15 14 10 10 11 7 6 6 7 7 15 17 18 17 17 19 19 18 17 17 20 20 19 18 18 17 17 17 17 17 17 17 17 17 18 18 11 15 15 16 16 16 16 17 14 15 15 14 12 13 11 11 13 14 15 15 14 14 15
18 12 13 11 10 15 15 15 14 15 15 15 15 15 13 13 12 12 12 12 13 13 14 14 14 15 15 16 14 8 7 11 11 11 12 13 14 15 15 16 17 19 19 19 17 17 17 18 17 16 16 16 16 16 16 16 16 16 16 16 17 16 17 18 18 18 17 15 14 15 14 14 13 13 12 12 12 13 14 12 14 15 15 12 14
18 17 13 12 15 16 14 14 15 17 16 16 16 15 15 15 15 14 14 13 12 13 13 11 12 12 13 14 13 14 14 12 12 12 12 12 12 14 15 15 15 16 16 16 15 16 16 17 16 15 15 16 16 16 16 16 16 16 16 16 17 16 17 16 14 14 15 14 14 14 14 14 14 13 12 12 12 12 13 11 10 13 15 14 14
19 18 12 11 10 16 15 17 17 16 15 14 14 12 14 12 12 11 11 11 11 11 11 11 12 12 12 12 9 12 17 14 12 12 12 11 13 13 14 15 14 15 16 16 16 15 16 16 15 15 16 16 15 15 16 15 15 16 16 16 17 14 17 17 16 15 15 13 14 14 14 14 13 13 14 13 9 10 10 9 10 14 14 15 14
16 15 15 15 14 15 15 14 12 13 12 14 16 14 13 13 12 11 10 10 10 10 11 10 10 11 12 12 11 9 16 13 13 13 12 12 13 13 12 12 13 14 15 15 15 15 15 16 15 15 15 15 15 15 15 15 15 16 16 16 17 14 14 15 13 16 14 14 14 14 14 14 14 14 13 8 11 12 11 11 14 13 14 14 14
14 15 15 14 15 14 14 13 13 14 13 12 12 6 7 10 10 9 10 10 10 10 11 12 12 12 11 10 12 9 13 11 7 12 13 14 13 12 12 12 12 12 13 14 14 15 15 16 16 15 14 15 15 15 16 16 15 16 16 16 17 16 16 14 14 15 14 14 14 13 13 14 15 14 13 12 12 12 12 13 12 13 13 15 12
12 12 12 11 10 10 11 12 11 11 12 7 5 9 11 11 10 11 13 11 11 12 12 12 12 13 13 13 13 13 13 12 12 13 12 12 12 12 13 13 13 13 13 13 13 13 14 14 14 15 14 15 15 14 16 16 16 17 17 17 14 13 15 14 14 14 14 15 15 15 16 15 15 14 12 12 12 12 12 11 10 12 11 13 14
9 9 9 10 10 10 9 9 10 10 9 8 10 11 9 11 12 13 13 13 13 13 13 13 12 12 12 12 11 12 11 12 11 11 13 13 13 13 13 13 13 14 14 13 12 13 13 14 15 15 16 16 15 15 15 16 16 18 18 18 15 16 16 17 16 15 15 14 15 15 15 16 16 15 14 13 13 12 13 11 12 8 10 11 11
10 9 10 11 11 10 12 13 12 13 13 13 13 14 14 15 15 14 14 15 14 15 17 17 15 13 13 14 13 13 12 13 14 12 12 12 13 13 13 14 14 14 14 15 14 13 14 15 13 14 15 17 17 16 16 15 16 17 17 18 18 18 16 15 14 15 16 16 15 15 15 15 15 15 14 14 15 14 13 12 12 11 10 10 10
8 10 9 10 12 11 10 11 12 15 15 15 15 15 16 17 17 16 15 16 16 17 18 17 17 16 16 16 16 15 15 15 14 14 13 13 13 13 12 13 15 15 15 15 14 14 14 15 15 16 16 17 17 17 17 18 18 17 15 17 17 17 16 15 15 15 16 17 17 15 16 16 15 15 16 16 13 15 12 13 13 11 11 10 10
10 9 10 10 12 13 14 14 14 10 15 15 15 17 16 17 18 18 19 19 19 19 19 19 19 19 18 18 16 17 16 17 16 16 16 16 16 14 14 14 15 17 17 16 15 15 15 15 14 15 16 16 16 17 17 17 17 17 18 17 17 17 15 11 15 15 16 16 17 18 18 17 15 16 16 18 16 15 15 14 13 13 11 11 10
13 13 14 14 14 16 15 15 15 17 16 17 17 18 17 19 20 20 20 20 20 20 20 21 21 21 20 20 19 19 19 18 20 21 22 21 19 19 18 17 15 18 18 18 18 17 17 16 15 15 15 16 16 17 18 17 17 18 16 18 15 13 13 14 13 17 14 18 17 18 18 18 19 18 18 18 15 15 14 12 12 12 12 10 11
14 13 14 15 16 16 17 17 17 18 17 18 19 19 19 20 21 20 21 21 21 21 21 21 21 21 22 22 20 21 21 22 22 22 23 23 23 21 20 20 19 20 21 22 22 21 20 18 17 17 16 16 17 17 17 18 17 17 17 16 12 14 15 15 15 13 17 18 19 18 18 18 18 18 18 18 15 15 14 13 12 13 12 11 10
14 15 15 17 18 18 19 19 19 20 20 20 20 21 22 22 22 21 21 21 22 22 22 22 22 22 22 22 20 22 23 24 24 24 23 23 23 22 23 22 22 21 22 22 23 23 22 21 22 22 20 18 18 18 17 17 18 15 10 11 13 15 15 14 17 13 17 12 18 18 19 18 17 17 16 16 16 16 14 13 13 13 13 12 11
Wind_Speed
13 12 11 12 12 12 11 11 11 10 9 9 8 8 7 6 5 5 6 7 7 8 8 8 8 7 7 6 6 6 6 6 5 5 4 5 4 4 5 5 4 4 3 3 3 3 2 2 2 2 1 1 1 2 1 1 1 1 2 2 2 2 4 5 7 9 8 6 7 8 9 9 10 10 11 11 11 11 11 11 12 10 10 9 10
13 12 11 11 12 12 12 11 10 10 10 9 9 8 7 6 5 5 6 7 8 9 9 8 7 8 7 7 6 6 7 7 6 5 5 5 5 4 4 5 4 4 3 4 4 3 2 3 3 3 1 2 1 3 0 2 2 3 2 3 3 4 3 5 7 8 10 8 8 9 9 8 10 10 11 12 12 12 13 12 10 11 10 9 10
13 12 11 11 12 12 11 11 11 11 10 9 9 9 8 7 6 6 7 7 8 8 8 8 8 8 8 7 7 7 7 7 6 6 5 6 6 5 5 5 5 5 5 5 5 4 4 4 4 3 2 3 3 3 2 3 3 3 3 3 4 4 4 5 6 8 10 10 9 10 9 9 10 11 11 11 12 12 13 12 11 10 10 11 10
13 13 12 12 13 12 12 12 12 12 11 10 10 9 8 7 7 7 7 7 8 8 8 9 8 8 8 8 8 7 8 7 7 6 6 6 6 6 6 6 5 5 5 5 5 5 5 4 4 4 4 4 4 4 3 2 3 3 4 3 3 4 4 5 6 7 8 10 10 10 10 10 10 10 10 10 12 13 12 11 12 12 12 11 11
13 13 13 13 13 13 13 12 12 12 12 10 11 10 10 8 7 8 7 7 8 8 8 9 9 9 8 9 8 8 8 8 8 7 6 6 6 6 6 6 6 6 6 5 5 5 5 5 5 5 5 5 4 5 4 3 4 4 4 4 4 4 4 5 6 7 8 10 10 9 10 10 10 10 10 11 11 12 13 13 11 12 13 12 11
13 13 13 13 13 14 13 13 13 13 12 11 11 10 9 9 9 8 8 8 8 8 9 9 9 10 9 9 9 8 8 8 8 8 7 7 7 6 6 6 6 6 6 6 6 6 6 6 6 6 6 6 5 5 4 5 4 4 4 4 5 5 5 6 6 7 8 9 10 11 9 10 10 9 10 10 11 12 12 13 13 12 12 12 11
14 13 13 14 14 14 14 14 12 12 12 11 10 10 10 10 10 9 8 9 9 9 9 10 9 9 9 9 9 9 9 8 8 7 8 8 8 7 7 7 7 6 6 7 7 7 7 6 6 6 6 6 6 5 5 5 5 5 5 4 5 5 6 6 7 8 8 9 9 9 10 9 10 11 10 11 12 11 12 13 14 12 12 12 13
14 14 14 13 14 14 14 14 13 13 12 11 11 10 10 10 9 9 8 9 9 10 10 10 9 9 9 9 9 9 9 8 8 8 8 7 7 8 7 7 7 7 7 7 7 7 7 7 7 7 7 6 6 5 5 5 4 5 5 4 4 5 6 6 6 7 7 8 9 9 9 10 10 9 10 11 11 10 10 11 14 15 15 13 13
15 15 14 14 14 14 13 12 12 12 12 12 11 11 10 10 9 9 9 9 8 9 9 10 10 10 10 10 10 9 9 8 7 8 8 8 8 8 8 8 8 7 7 8 8 8 8 7 8 8 7 7 5 4 4 4 4 5 5 4 5 6 6 6 6 7 7 8 9 8 9 10 9 10 11 11 11 12 12 12 13 13 14 15 14
15 15 15 15 14 14 13 12 12 12 12 12 12 11 10 10 10 10 10 9 9 9 9 9 10 10 10 11 10 9 8 8 8 11 9 8 8 7 7 7 8 8 8 7 8 8 8 8 7 8 8 8 9 8 7 8 10 9 7 5 6 6 6 6 7 7 7 8 8 9 10 10 10 10 11 11 11 12 13 12 13 13 14 14 13
15 15 15 15 14 14 13 13 13 13 13 12 12 12 12 10 10 10 10 9 9 9 9 10 10 10 10 10 11 9 8 7 12 13 12 8 7 7 7 7 7 8 8 8 8 8 8 9 8 9 11 11 11 11 10 12 12 12 13 12 9 8 7 7 7 7 7 8 8 9 10 11 11 10 10 10 10 12 12 12 12 13 13 14 16
15 15 15 14 14 14 14 14 14 14 13 14 13 12 11 11 11 10 10 10 9 8 9 10 10 9 9 10 10 9 8 10 14 15 14 13 9 7 7 7 7 7 8 8 8 7 8 7 7 7 8 10 10 11 15 15 13 13 13 12 11 10 9 8 8 8 7 8 9 10 10 10 11 10 10 10 11 12 12 12 12 13 14 14 13
16 16 15 15 15 14 14 14 14 14 14 13 12 12 12 12 12 11 11 10 8 9 10 9 10 10 9 9 8 9 10 13 15 16 16 15 14 11 8 7 7 8 8 8 8 8 7 7 7 7 7 10 11 10 9 10 15 14 13 12 12 12 12 12 11 10 9 9 10 11 10 10 11 10 10 11 11 13 12 12 12 12 12 13 13
16 16 16 16 15 15 15 15 14 14 13 13 12 13 12 12 11 10 9 9 9 9 9 10 10 9 8 7 9 10 11 13 16 16 17 16 15 13 10 9 8 8 9 8 8 8 8 8 8 7 8 8 9 10 10 10 8 10 11 10 10 13 14 14 14 13 13 11 11 11 11 10 11 11 12 11 12 12 12 13 13 13 14 14 15
16 15 16 16 16 15 15 15 15 14 14 13 12 13 13 12 11 10 9 9 10 10 10 10 8 9 11 12 12 10 10 15 18 17 16 15 14 11 10 9 8 8 9 9 9 9 9 8 9 9 8 8 8 9 9 8 8 8 8 8 9 9 9 10 11 11 10 11 11 11 11 11 11 11 11 10 11 11 11 13 14 14 15 15 13
15 15 15 15 16 15 15 14 14 14 14 13 13 13 13 12 12 10 9 9 8 8 8 8 10 12 12 11 9 11 9 16 17 16 15 15 14 9 10 10 9 9 9 9 9 9 9 9 9 9 10 10 9 7 6 7 8 8 9 9 9 9 8 8 6 6 7 7 7 9 9 10 11 12 12 11 11 11 12 12 12 11 12 12 12
15 15 15 15 15 15 15 15 14 14 14 14 14 14 13 13 11 9 9 9 9 9 9 9 9 10 10 9 11 10 8 13 16 16 15 15 12 10 10 9 9 10 9 9 9 9 9 10 10 9 9 10 8 10 9 6 9 10 10 10 9 8 8 5 9 11 11 11 12 15 16 17 18 18 17 16 12 11 11 11 10 10 11 12 11
15 14 14 15 15 14 14 14 14 14 14 14 14 13 12 11 9 8 9 9 10 9 9 8 8 8 9 10 10 10 9 12 17 16 16 17 15 11 10 10 10 9 9 9 8 9 10 12 11 10 10 9 7 12 11 9 9 10 10 10 10 9 8 6 4 5 10 12 13 15 15 16 17 17 17 17 17 12 10 11 11 10 11 10 12
14 14 14 14 13 13 13 14 14 13 14 14 12 13 12 10 9 8 9 9 9 8 7 7 6 6 9 12 12 13 9 10 18 16 17 18 15 11 10 10 10 9 9 9 9 8 9 11 15 13 12 10 7 11 12 10 9 9 10 9 10 10 8 5 5 6 5 5 7 8 9 11 11 10 11 14 15 14 11 11 10 10 11 11 11
13 13 13 12 12 12 11 12 12 13 13 13 12 12 10 9 9 8 7 7 6 6 6 6 8 9 9 11 9 9 10 8 14 18 18 18 19 12 10 10 10 10 9 8 8 8 8 8 11 17 16 15 10 10 12 13 10 9 9 9 9 9 5 4 5 4 6 7 8 8 10 10 10 9 9 9 9 9 9 9 9 9 10 11 11
12 12 11 11 12 12 11 11 12 13 12 11 10 9 8 8 8 8 7 6 6 6 7 7 9 9 8 8 8 8 9 10 12 19 19 19 19 16 12 11 10 9 9 8 8 8 8 8 8 14 19 17 15 12 12 13 11 9 10 10 8 2 3 3 5 6 6 7 8 8 8 8 8 8 8 8 8 8 8 9 9 9 10 10 11
10 10 11 11 11 11 11 10 10 9 9 9 8 8 8 7 7 7 6 6 7 9 8 7 7 8 8 7 7 8 9 12 8 17 19 19 19 21 13 12 11 9 9 9 8 8 8 7 8 9 18 16 15 14 13 12 13 10 11 12 6 3 4 4 4 5 6 7 6 7 7 8 8 8 8 7 7 8 9 9 9 10 10 10 10
10 10 10 11 10 10 10 11 9 7 7 7 7 8 7 7 7 7 7 7 8 9 9 8 7 8 8 7 7 8 8 9 12 11 18 18 19 20 20 14 9 9 9 9 9 8 7 7 7 10 14 13 13 13 12 13 10 10 13 11 9 5 3 5 6 7 7 7 6 7 7 8 8 8 8 8 7 8 9 10 10 10 10 10 11
8 9 9 9 9 9 9 8 8 7 7 7 8 8 8 7 7 7 7 8 8 8 8 8 8 8 8 7 7 6 7 7 12 13 14 20 18 20 21 20 11 10 10 10 9 8 7 8 4 11 11 11 11 11 11 11 9 12 13 14 12 7 5 6 7 8 8 7 7 7 8 8 7 8 8 7 8 8 10 10 10 10 10 10 11
8 8 8 8 8 7 7 7 8 8 7 8 7 8 9 9 8 7 7 7 7 7 8 8 8 7 7 7 6 6 6 7 6 12 15 17 19 19 19 19 19 13 9 10 10 9 7 4 8 8 8 8 9 8 8 11 13 12 11 10 9 7 7 7 8 8 8 8 7 7 8 8 8 7 7 8 9 10 9 9 9 10 10 10 10
7 7 7 7 8 8 9 9 9 8 7 7 7 7 7 7 6 6 6 6 7 7 7 7 7 6 6 5 6 5 6 5 6 7 11 11 13 17 18 17 16 16 14 11 10 10 10 8 6 3 6 7 6 7 8 8 13 15 14 12 8 8 8 8 9 9 9 8 7 7 8 8 7 6 6 8 9 8 8 8 9 9 9 8 9
8 8 9 9 8 8 8 7 6 6 6 6 6 6 6 6 6 7 6 6 6 6 6 6 6 5 5 5 4 5 6 6 6 6 8 9 9 10 11 11 13 11 10 12 13 12 14 12 11 10 9 10 10 9 9 8 8 8 7 8 8 8 9 9 10 9 9 7 7 8 8 7 6 5 6 8 9 8 7 8 8 9 9 8 9
8 8 9 8 7 7 7 4 5 5 4 5 5 5 5 5 6 6 6 5 5 5 5 5 5 5 4 4 4 4 5 6 6 7 7 8 8 9 10 10 10 11 11 11 11 11 9 8 9 8 8 8 8 8 9 9 9 8 7 7 8 9 10 12 11 10 9 7 7 7 6 5 6 6 6 7 8 8 7 8 8 9 8 8 8
6 6 6 6 6 5 5 5 6 5 4 5 4 3 4 5 4 3 2 3 2 4 5 5 4 4 5 5 5 5 4 6 6 6 6 7 7 7 9 9 9 9 11 9 8 8 7 6 5 6 7 8 8 8 8 8 8 8 9 8 8 8 9 9 11 11 10 7 7 7 7 6 6 6 6 7 8 7 7 7 8 8 8 8 8
5 5 4 4 4 4 4 5 5 5 5 5 5 3 7 8 7 4 1 7 9 8 7 3 4 4 3 3 4 5 3 6 9 10 7 9 8 8 5 2 1 2 5 13 8 6 7 7 8 8 8 7 8 9 8 8 6 6 7 9 8 8 9 10 10 9 8 7 7 6 7 6 6 6 6 7 7 7 7 8 8 7 8 8 7
5 5 4 4 4 2 4 4 3 3 3 3 3 4 5 3 5 7 7 7 7 5 4 7 7 6 5 5 2 5 6 8 7 4 4 6 7 8 8 7 2 7 8 6 5 8 7 7 7 6 7 8 8 8 8 6 5 5 6 6 8 10 10 10 10 8 7 7 7 7 6 6 6 6 6 6 7 7 7 7 8 7 7 7 7
5 6 6 6 5 5 5 4 2 2 3 2 2 1 2 4 5 3 3 2 2 1 2 3 3 5 5 4 5 6 4 4 2 4 4 4 6 6 7 7 7 3 3 2 4 5 6 6 6 7 8 9 9 8 6 6 5 5 6 8 9 9 9 10 10 8 7 6 7 7 7 7 6 6 6 6 6 6 7 7 7 7 7 7 6
9 8 7 6 5 5 5 5 4 4 4 3 3 3 2 2 0 3 3 2 4 5 5 5 6 6 6 7 7 8 10 9 6 2 2 5 5 6 6 5 2 4 6 4 5 4 6 6 7 8 9 9 7 6 6 5 6 6 8 9 9 9 9 9 8 7 6 7 6 6 7 6 6 6 4 6 6 6 6 7 7 7 6 6 6
12 8 7 8 8 7 7 6 6 6 6 6 6 4 4 4 4 5 3 1 2 3 6 8 8 7 7 8 8 10 9 8 7 5 4 4 5 4 2 1 4 7 6 6 6 7 7 9 9 10 9 9 6 5 5 6 7 8 9 9 9 8 8 7 7 7 7 7 7 6 7 7 5 6 6 6 5 5 6 7 7 7 6 6 6
9 10 13 9 6 7 6 6 6 6 6 5 5 4 4 4 3 4 4 5 5 4 3 3 7 8 4 5 8 9 9 8 7 4 4 3 4 5 5 4 4 5 6 8 8 8 9 9 9 9 8 8 6 6 7 8 9 9 9 8 8 8 7 7 7 7 7 7 7 7 7 7 7 6 4 5 5 5 6 6 6 6 6 6 6
7 7 7 9 9 8 7 6 5 4 3 3 3 3 4 4 3 2 1 2 4 3 2 2 2 6 8 6 7 5 6 7 5 2 2 5 7 9 4 6 6 7 7 7 8 8 8 9 9 8 6 7 8 9 9 8 8 8 7 7 8 7 7 7 7 7 7 7 7 7 7 7 6 6 5 5 6 6 6 6 6 6 5 6 5
5 7 6 5 5 4 4 4 4 3 2 2 3 3 3 3 3 2 2 1 1 1 3 2 3 2 6 4 4 6 6 4 3 2 3 5 8 7 6 7 7 6 7 8 8 7 7 8 8 9 9 9 9 8 7 7 7 7 7 8 7 7 7 7 6 5 6 6 6 7 8 7 7 7 6 5 4 5 6 6 6 6 6 5 5
5 4 4 1 3 4 5 5 2 4 1 3 5 4 4 3 3 2 2 2 1 2 2 2 1 3 6 5 3 2 2 5 4 5 6 5 5 6 6 7 7 7 7 7 6 7 8 8 8 8 7 7 7 7 7 7 6 6 7 7 7 8 6 6 7 7 7 6 7 7 6 6 7 7 5 5 4 4 5 6 6 6 6 7 7
8 6 6 6 7 6 6 6 6 5 5 5 5 5 4 4 3 4 4 4 5 5 6 6 6 6 6 6 6 3 2 3 3 2 3 3 4 4 4 5 5 6 6 6 6 7 7 6 6 6 6 6 6 6 6 6 6 6 7 7 7 6 7 7 7 7 7 6 5 6 5 5 5 5 5 5 5 5 5 5 6 6 6 4 5
7 7 4 3 7 7 6 6 6 6 6 6 6 5 5 5 4 4 4 4 4 4 4 3 3 3 4 5 5 5 6 4 3 3 4 4 3 3 4 4 4 5 5 5 6 6 7 7 6 6 6 6 6 6 6 6 6 6 7 7 7 7 7 7 5 5 5 5 5 5 5 5 5 5 5 5 4 5 5 4 4 6 6 6 5
8 8 8 7 5 7 7 7 7 6 6 5 5 4 5 4 4 4 4 4 4 3 3 3 3 2 4 2 5 6 6 5 4 4 4 4 4 5 5 6 5 5 5 6 5 5 5 5 5 5 6 6 6 6 6 6 6 6 6 6 7 5 7 7 7 6 6 5 5 5 5 5 5 5 6 5 6 5 4 3 3 5 6 6 6
6 6 6 6 6 6 6 6 4 5 5 6 6 5 5 5 4 4 4 4 4 4 3 3 3 1 5 4 5 7 7 4 4 5 4 4 4 4 4 4 4 4 4 4 4 5 5 6 6 6 6 6 6 6 6 6 6 6 6 7 7 5 5 5 5 7 6 5 5 5 5 5 6 6 6 6 4 5 4 3 5 5 6 6 6
6 6 6 6 6 5 5 5 5 5 4 4 4 2 2 2 3 2 2 2 3 3 3 3 3 5 1 6 4 8 6 4 4 4 4 5 5 4 4 4 4 4 4 4 4 4 5 6 6 6 6 6 6 6 6 6 6 6 6 7 7 7 7 5 5 5 5 5 5 5 5 6 6 6 5 5 5 4 4 5 5 5 5 6 5
4 4 4 4 3 3 4 4 4 4 5 2 2 2 4 4 3 4 5 4 4 4 4 4 4 4 4 2 6 5 4 4 4 4 4 4 4 4 4 4 4 5 5 4 4 4 5 5 5 6 6 6 6 6 6 6 6 7 7 7 5 6 6 5 5 5 5 5 5 5 6 6 6 5 5 5 5 5 5 5 4 4 4 5 5
2 3 2 3 3 3 2 2 3 3 3 3 2 3 3 4 4 4 4 5 5 5 5 5 4 4 4 4 3 3 4 4 4 4 4 4 4 4 4 4 4 5 5 5 4 5 5 6 6 7 7 7 6 6 6 6 7 7 7 7 6 5 5 7 7 6 6 5 5 5 5 6 6 6 5 6 6 6 5 5 4 4 4 4 4
3 2 3 4 4 3 4 5 5 4 5 5 5 5 5 5 6 6 6 6 6 6 7 7 6 5 5 5 5 5 4 5 5 4 4 4 5 5 5 5 5 6 5 6 5 6 5 6 5 5 6 7 7 7 7 6 6 7 7 8 8 7 7 5 5 6 6 6 5 5 5 5 6 6 7 6 6 6 5 5 6 4 4 4 4
2 3 3 3 4 4 3 4 4 5 6 5 5 5 6 7 7 7 7 7 7 7 7 7 7 6 6 6 6 6 6 6 5 5 5 5 5 5 4 5 6 6 6 6 6 6 6 6 6 7 7 7 7 8 7 7 7 7 6 6 7 7 6 6 5 6 6 7 7 5 4 5 5 6 7 7 6 6 6 5 5 5 4 4 4
3 3 3 3 4 5 5 5 5 6 6 6 6 7 7 7 7 8 8 8 8 8 8 8 8 8 8 7 7 7 7 7 7 7 6 6 6 5 5 6 6 7 7 7 6 6 6 6 6 7 7 7 7 7 7 7 7 7 7 7 6 5 5 5 6 5 5 5 6 6 6 6 5 6 6 9 7 7 7 6 5 5 4 4 3
5 4 5 5 6 6 6 6 6 7 6 7 7 7 7 8 8 8 8 8 8 8 8 8 8 8 8 9 9 8 8 8 8 9 10 9 9 9 9 8 8 8 8 8 8 7 7 7 7 6 6 7 7 7 8 7 7 7 7 7 4 5 3 1 6 7 5 4 5 5 6 6 7 7 8 9 7 7 6 5 6 5 5 4 4
5 5 6 6 6 7 7 7 7 7 7 8 8 8 8 9 9 9 9 9 9 9 9 9 9 9 9 9 9 9 9 9 10 10 10 10 10 10 9 9 9 9 10 10 10 10 9 8 9 9 8 7 7 7 7 8 8 7 7 4 9 4 3 4 7 6 6 6 5 5 5 6 6 7 7 8 7 7 7 6 5 6 5 4 4
6 6 6 7 7 8 8 8 8 8 9 9 9 9 10 10 9 9 9 9 9 9 9 9 9 9 9 9 9 9 10 11 11 10 10 10 11 11 11 11 11 10 11 11 11 10 10 10 10 10 10 9 9 8 7 7 7 6 5 4 1 2 4 5 6 8 8 7 6 5 5 6 7 7 6 7 7 7 7 7 6 5 5 4 4
Wind_Direction
193 198 199 202 202 204 201 205 207 210 215 213 223 232 238 238 216 208 181 185 179 182 191 191 188 187 184 182 179 173 172 173 175 173 176 172 175 179 174 195 193 181 179 181 190 206 197 197 173 157 180 234 254 211 242 301 282 272 301 329 322 323 316 309 302 306 309 316 308 309 314 307 304 314 314 316 316 318 311 304 303 301 300 303 305
198 198 200 202 203 201 201 200 205 210 212 218 224 228 228 225 221 207 190 187 185 190 195 191 189 189 189 186 183 179 180 176 177 179 184 176 176 186 190 201 207 184 199 201 193 206 203 233 194 172 214 249 272 274 68 299 308 312 338 328 332 332 321 308 307 303 308 316 318 315 308 314 310 315 315 315 316 315 313 312 309 309 308 305 305
199 199 198 200 200 200 200 201 204 211 216 219 224 227 226 222 216 208 202 190 192 197 198 194 191 191 191 192 189 185 188 177 181 184 185 187 186 187 196 202 206 205 205 214 210 191 210 215 219 196 201 227 227 263 283 268 309 307 316 323 331 313 309 315 307 303 309 311 312 314 320 320 312 311 313 313 312 313 316 318 315 310 306 307 305
198 199 199 199 199 200 201 203 207 210 216 218 224 225 228 225 218 217 211 196 195 197 200 198 192 195 198 196 194 191 191 182 184 191 189 191 197 193 197 202 209 214 220 220 214 211 214 219 221 215 215 227 236 246 241 250 265 278 298 314 299 306 316 299 286 293 300 304 314 316 319 315 310 310 312 309 312 317 318 315 310 309 312 311 312
200 199 199 199 199 203 205 207 210 215 219 221 222 224 226 225 221 219 211 203 202 194 198 202 199 200 201 201 198 197 197 191 188 190 190 194 201 203 203 206 212 220 222 228 225 229 221 225 230 218 217 236 233 240 246 242 273 282 295 304 305 314 301 296 297 292 293 298 305 308 310 309 311 312 315 316 319 317 317 316 320 317 314 315 309
200 201 199 199 201 204 208 212 215 217 219 222 225 226 226 226 221 218 219 211 202 203 202 202 204 206 204 203 204 200 199 198 199 195 194 190 199 204 209 212 215 221 219 226 225 221 229 229 227 224 224 229 239 243 252 259 265 273 276 289 304 309 302 296 287 290 295 296 302 307 312 314 316 316 319 323 322 318 318 320 322 321 318 315 313
199 201 202 201 203 207 210 213 216 220 221 224 224 226 228 228 228 227 220 214 204 206 206 207 205 213 209 204 205 203 200 198 202 202 202 197 197 200 205 213 218 222 229 223 226 228 228 230 230 227 229 232 234 238 241 243 251 265 271 275 285 293 294 296 299 300 298 302 305 309 312 315 317 316 326 327 320 322 324 325 320 322 320 319 315
198 200 202 204 207 208 212 214 218 222 224 224 226 228 230 229 229 233 228 217 213 212 212 209 206 211 213 208 204 201 201 199 201 203 206 205 202 204 204 211 220 219 224 231 230 231 232 235 232 229 228 228 230 234 240 250 261 261 266 270 278 286 292 298 301 302 305 309 311 313 315 315 314 318 323 325 324 323 330 324 317 319 321 320 314
199 201 202 206 209 211 212 216 219 222 223 226 227 227 230 232 228 225 223 219 218 221 216 213 208 210 212 208 203 197 201 202 201 201 203 206 206 210 211 209 216 224 225 226 230 232 234 232 234 234 225 230 234 261 286 309 278 268 269 268 272 287 290 295 303 304 304 310 310 312 313 313 317 323 325 326 326 324 322 320 312 313 316 315 316
201 202 205 207 209 211 213 216 219 221 223 225 228 228 228 227 225 225 223 221 219 219 218 215 214 211 213 208 203 200 200 201 194 194 204 205 205 213 212 216 217 223 228 232 231 233 235 238 233 230 234 223 217 216 226 237 243 259 276 280 283 283 291 297 297 304 307 306 312 316 312 314 319 320 319 317 317 318 319 319 315 316 316 314 309
203 205 208 208 209 211 215 217 219 222 224 228 229 229 228 226 224 224 225 222 219 213 213 215 215 215 215 209 204 202 199 197 176 179 190 219 225 213 217 217 220 226 229 231 237 233 231 235 241 219 216 223 224 216 222 224 227 233 244 262 274 278 287 291 292 298 303 305 307 309 309 308 311 317 314 316 319 321 318 315 312 315 320 322 317
203 206 210 209 210 211 213 217 220 223 225 227 229 229 230 229 224 222 223 217 213 211 212 217 219 216 216 215 208 206 202 188 170 180 186 194 212 221 219 224 220 225 230 235 235 238 238 235 234 235 226 224 234 222 214 217 219 221 228 227 232 245 255 266 283 290 294 301 303 303 304 305 313 314 313 318 318 315 312 311 311 316 316 315 311
204 208 209 211 212 214 215 218 222 224 226 229 229 231 231 230 228 223 223 217 208 211 214 216 218 215 211 213 208 208 217 174 178 181 189 193 198 215 224 226 226 225 230 233 239 242 240 238 238 234 241 214 225 241 252 216 201 212 211 217 227 229 231 239 251 262 281 287 289 291 298 308 305 307 314 312 313 308 312 310 312 311 309 306 308
205 208 210 212 214 215 218 221 224 226 228 229 231 233 231 231 230 229 226 217 211 213 213 211 214 210 203 200 215 216 221 177 182 185 190 193 194 200 225 229 230 232 230 232 234 236 238 241 241 239 236 231 229 235 238 247 237 208 214 225 236 227 220 224 229 234 241 257 271 282 289 293 298 303 306 309 309 310 310 306 309 305 304 300 299
205 209 211 213 215 217 219 221 225 227 228 230 231 233 233 233 231 228 224 221 213 210 208 208 204 203 188 198 217 217 219 172 185 188 188 188 191 196 218 226 231 231 230 232 234 234 236 237 242 247 247 242 236 229 239 240 244 252 247 239 238 245 241 225 221 226 229 231 245 261 278 289 295 298 302 304 303 301 300 298 298 296 291 290 290
209 209 213 214 216 217 219 222 225 227 229 231 232 233 233 233 232 227 225 223 218 212 207 210 200 205 209 207 216 224 214 170 183 184 180 183 178 199 216 224 228 231 229 227 228 230 232 235 238 241 245 247 242 195 225 257 266 261 256 251 252 251 247 243 253 278 277 283 283 284 285 289 295 292 290 291 294 295 297 294 289 288 301 308 308
211 211 214 216 218 220 220 222 224 227 229 231 233 235 235 234 231 225 223 220 219 212 214 212 212 217 212 206 220 227 225 174 178 180 179 176 175 206 212 220 227 227 231 227 227 229 229 231 233 239 244 245 232 170 189 219 251 256 257 257 255 254 255 246 188 212 227 241 254 264 272 276 278 277 276 272 267 279 292 292 294 314 310 308 312
211 213 215 216 218 219 222 223 225 227 230 233 234 235 236 235 231 217 220 221 221 220 220 221 215 215 195 210 213 222 223 171 174 176 181 178 188 202 210 217 224 227 228 225 228 229 228 221 232 238 243 244 203 169 177 192 239 249 254 257 255 253 253 245 237 201 216 236 248 255 259 263 265 265 266 266 264 258 272 282 300 306 304 307 308
210 213 216 217 219 220 221 224 227 229 230 232 232 235 233 231 228 218 218 226 233 235 226 218 210 202 206 221 214 217 223 172 172 174 184 182 192 209 213 220 222 225 229 228 222 231 231 216 211 225 237 246 203 179 176 197 236 244 250 254 254 254 253 245 241 257 258 259 260 257 260 250 252 259 264 255 244 238 248 269 287 297 302 304 304
211 212 216 217 218 218 217 219 223 226 230 232 231 233 234 229 221 222 223 229 236 236 225 222 225 219 222 221 219 210 217 199 174 179 183 186 195 206 215 220 224 224 227 232 229 223 227 236 205 201 222 232 227 184 183 197 229 248 247 248 254 255 247 227 228 237 263 271 274 275 278 284 283 278 276 278 282 281 279 278 283 290 292 295 299
210 212 213 213 213 214 212 212 214 218 225 231 232 231 226 227 231 225 217 227 232 225 216 217 227 233 234 223 219 204 203 209 173 181 186 189 195 207 216 220 224 226 227 227 232 239 236 230 247 190 203 216 222 209 195 198 216 243 247 249 254 31 61 236 241 241 262 268 269 270 275 282 283 284 282 285 290 294 294 289 286 283 285 289 294
208 211 213 213 213 213 214 215 216 221 228 229 227 227 230 235 231 212 218 221 215 221 229 222 225 239 237 217 214 213 196 200 183 181 186 191 193 205 218 219 221 225 233 238 236 242 240 245 257 184 185 201 212 214 213 207 209 227 246 254 281 120 234 252 265 267 262 261 263 267 276 282 287 288 286 283 284 293 296 294 289 286 284 283 289
202 207 210 214 215 218 218 215 210 215 221 217 223 234 233 227 213 212 211 216 223 229 230 221 226 236 236 225 219 211 206 189 197 182 189 191 195 203 218 230 204 222 237 240 240 246 248 248 249 148 177 187 201 207 211 214 207 228 240 249 254 230 222 250 253 257 258 255 253 262 265 275 281 284 290 288 290 294 297 297 293 288 284 283 281
208 209 211 217 218 218 217 214 218 219 217 208 219 228 225 219 215 218 220 223 222 224 230 225 229 235 231 228 217 209 201 208 188 191 182 193 196 203 213 226 233 224 228 241 245 249 254 247 249 147 169 179 194 199 208 205 220 225 222 231 237 229 237 243 242 246 252 251 247 248 257 265 271 278 283 291 293 296 297 293 287 285 286 288 289
198 209 208 212 216 223 226 222 216 216 213 209 218 223 224 219 220 218 212 221 229 234 235 231 228 229 228 227 222 209 202 204 202 186 183 187 198 203 212 217 226 235 241 240 247 250 268 15 94 149 167 179 190 203 215 219 224 234 233 227 222 226 225 233 238 242 241 244 242 245 257 262 264 269 276 285 292 289 283 285 289 290 288 287 289
212 217 218 230 233 233 236 234 229 221 217 224 228 235 239 226 230 230 222 228 231 235 238 234 228 230 231 228 225 217 201 199 209 185 182 184 198 207 210 213 221 224 233 256 274 300 308 297 284 236 196 190 205 226 233 225 207 217 222 219 221 222 223 228 235 236 240 239 239 245 254 264 270 277 286 286 282 282 293 298 301 302 305 308 311
216 216 219 222 223 227 230 232 229 225 222 226 227 227 221 221 221 222 218 222 226 231 233 232 230 227 228 227 222 216 199 205 206 192 182 191 202 197 202 217 219 223 232 241 248 255 253 248 244 239 246 233 223 238 247 237 203 203 202 209 213 217 221 225 231 236 234 233 237 248 253 262 274 277 277 283 285 290 300 300 297 303 311 313 307
219 217 213 212 210 205 216 182 209 215 209 212 215 208 212 211 211 211 214 216 219 219 233 232 231 230 228 219 216 209 212 212 205 202 189 193 196 194 193 201 202 205 217 225 226 229 237 235 227 232 231 235 232 232 230 226 226 217 205 200 210 219 227 233 239 242 239 234 242 248 255 251 259 267 272 278 286 294 301 298 298 303 306 310 305
219 203 192 195 194 194 197 182 200 197 180 189 199 197 200 200 204 200 207 243 262 252 230 228 227 241 246 244 230 233 235 226 213 185 187 188 202 198 193 197 199 206 211 209 215 218 214 219 226 216 213 219 225 226 221 215 212 203 218 223 220 222 225 223 226 229 228 217 222 224 234 238 248 254 266 276 281 289 295 294 296 296 301 298 301
200 187 184 166 154 164 166 164 177 175 172 174 167 133 42 36 17 360 96 71 44 29 6 327 1 331 273 246 262 269 297 35 67 121 135 175 207 237 268 324 231 20 154 177 206 221 213 221 220 222 223 220 227 231 231 215 200 197 211 211 221 226 228 231 233 234 219 211 216 216 225 227 235 244 259 270 282 288 300 296 289 292 294 300 305
145 136 124 92 42 128 146 144 150 154 141 145 154 147 151 133 65 53 39 48 33 19 345 343 345 354 349 305 13 84 69 110 92 112 156 189 210 229 247 260 284 102 121 133 195 223 233 233 236 235 234 232 230 231 228 215 207 215 218 216 223 224 224 230 235 231 221 218 215 220 223 222 234 238 252 267 278 286 296 293 290 288 294 302 307
101 88 83 91 68 46 75 71 83 89 90 84 93 140 171 152 136 71 60 112 139 292 305 301 301 289 297 290 291 286 155 154 157 164 186 205 225 234 242 247 250 192 166 233 244 239 238 243 246 246 245 240 235 235 224 228 222 215 227 236 237 225 218 227 226 218 212 210 216 217 219 223 225 233 243 258 269 280 285 291 294 296 298 297 304
58 61 65 71 81 70 61 57 44 54 49 52 52 24 7 350 123 137 137 220 228 204 203 224 234 249 248 260 245 250 278 301 333 315 241 229 227 233 236 245 229 128 130 191 231 250 248 252 255 255 252 250 240 234 231 212 218 227 236 241 240 236 232 234 212 208 214 215 209 211 215 215 211 221 233 246 254 266 279 289 289 292 295 296 305
51 42 34 42 44 43 50 46 45 42 43 41 34 33 34 22 17 3 336 300 242 260 242 229 228 216 237 241 251 256 256 262 271 275 248 235 232 239 227 256 128 173 204 237 232 242 246 247 250 250 251 253 242 218 220 232 237 238 239 238 242 243 238 220 205 213 212 211 212 212 212 217 208 214 228 238 246 259 272 276 285 293 298 307 308
63 59 34 24 51 61 61 58 48 41 43 44 40 24 30 36 21 2 355 349 346 342 329 221 204 206 229 229 228 235 250 258 260 248 221 210 191 157 171 211 192 188 202 227 236 239 244 244 250 250 247 250 250 244 242 242 244 237 236 240 242 239 227 210 218 212 211 206 206 207 211 213 206 204 214 229 240 253 266 280 287 291 297 305 309
47 57 58 49 50 40 39 48 52 58 43 53 73 82 35 12 356 20 339 285 277 271 254 333 356 170 208 265 278 279 258 255 269 251 180 184 168 166 217 248 245 240 235 220 225 235 243 249 255 259 249 250 254 252 246 240 236 238 241 243 242 239 228 223 217 215 210 210 207 207 207 208 202 195 205 221 232 247 267 271 279 286 294 294 318
45 60 58 44 58 74 59 56 66 79 111 191 182 147 157 171 185 214 231 290 336 341 339 6 344 140 179 205 199 226 224 261 246 220 181 174 170 202 251 257 263 259 255 259 254 250 243 242 242 251 254 254 250 246 245 246 246 245 243 244 246 240 236 232 226 210 206 206 208 209 208 204 196 197 200 214 220 231 251 265 272 273 271 287 294
49 42 67 32 104 96 96 90 126 215 190 81 68 71 70 53 42 40 51 61 5 329 0 34 342 337 1 29 117 343 111 137 129 149 141 143 178 225 240 246 253 263 271 284 277 266 255 256 255 249 246 246 249 251 251 252 250 249 245 238 236 241 229 233 222 224 219 217 213 210 203 201 199 199 201 213 217 223 243 260 277 280 276 235 237
81 66 35 24 50 65 66 60 61 58 60 57 55 47 41 33 33 19 21 28 19 15 13 12 17 15 10 356 339 18 254 248 238 248 204 206 205 225 246 252 253 256 262 261 258 252 258 263 266 264 262 260 259 261 263 265 261 255 249 248 242 239 215 226 224 218 212 215 212 209 203 198 196 198 195 203 209 219 231 251 262 270 272 281 280
84 88 48 343 79 61 67 69 69 66 55 54 50 45 41 37 31 31 31 30 34 26 18 13 13 20 13 346 344 322 301 302 320 328 327 323 289 234 220 243 269 279 286 290 297 303 298 295 290 281 274 267 264 262 256 251 249 248 248 247 250 244 239 230 226 220 215 213 213 205 198 195 199 198 196 199 207 204 218 238 254 265 276 288 298
81 78 70 50 33 68 64 59 55 49 57 53 56 56 54 43 41 33 19 18 15 7 11 356 7 50 34 336 295 288 293 314 342 343 349 344 331 328 325 320 318 314 312 310 311 311 312 308 307 300 292 289 281 271 262 258 256 250 248 250 249 247 245 239 231 225 220 212 208 203 198 192 193 193 198 201 194 201 210 224 246 261 262 259 264
73 71 69 77 67 64 67 65 68 63 57 57 50 44 42 39 41 37 24 11 8 352 342 350 344 13 142 202 254 252 267 321 355 332 341 346 339 345 335 325 325 330 323 323 323 318 318 318 311 305 298 291 282 275 272 266 258 255 252 246 244 244 244 244 234 226 219 214 205 201 201 197 193 197 200 193 186 192 200 210 235 254 263 261 255
65 64 67 64 56 51 50 57 44 42 40 34 47 47 20 3 10 353 9 16 0 346 338 340 350 336 121 170 282 271 280 340 345 329 343 334 332 328 321 321 328 332 331 327 325 328 324 317 316 307 302 293 287 282 274 270 263 258 253 248 246 245 241 241 240 227 220 218 214 194 193 196 196 198 194 188 185 180 192 203 218 242 256 263 264
80 78 73 65 60 61 36 25 31 31 26 351 267 341 2 344 354 360 353 345 350 339 331 332 335 330 331 204 215 259 345 329 341 340 339 330 334 333 333 347 346 340 332 335 338 338 326 315 312 313 306 293 284 277 276 273 272 263 258 254 249 248 250 244 237 234 223 220 210 194 194 200 198 192 184 180 180 180 187 195 209 225 250 260 263
59 41 35 46 36 21 21 39 1 357 329 288 316 349 346 333 339 345 338 333 332 323 322 318 301 304 313 311 310 318 314 333 329 328 340 338 334 336 341 342 344 338 330 331 343 338 329 329 325 321 318 311 307 292 277 270 266 267 264 262 260 250 241 240 239 235 228 217 214 206 204 194 192 193 185 182 179 178 183 188 192 213 233 252 261
5 17 18 5 7 9 352 5 351 348 345 341 338 333 338 334 332 332 325 315 311 319 314 306 297 292 284 292 310 307 308 320 313 325 325 327 326 330 335 341 342 332 333 336 338 332 331 328 320 322 321 322 318 312 300 285 267 263 267 268 268 265 261 251 238 233 224 212 219 218 204 198 195 191 178 177 183 183 184 184 188 199 214 233 247
338 334 340 348 351 333 336 323 326 349 322 320 320 326 326 330 326 314 308 309 303 286 281 291 299 296 294 297 301 304 305 295 300 309 309 307 302 298 310 331 328 324 329 330 329 324 331 328 331 330 325 325 319 314 308 305 302 290 272 267 268 274 267 256 245 234 228 222 218 216 207 204 197 193 180 187 180 175 174 180 187 190 205 221 238
311 313 319 324 320 330 330 323 329 311 310 322 327 324 314 310 310 313 313 312 306 307 304 299 296 294 290 285 284 287 290 292 291 288 291 292 291 292 301 302 309 319 322 318 314 321 323 320 322 326 328 327 327 322 317 313 306 303 295 289 282 281 351 339 272 260 242 233 219 217 211 210 207 199 186 186 187 168 169 177 181 189 200 209 235
299 310 318 322 323 311 313 320 316 310 314 315 311 307 316 315 312 309 308 307 309 308 306 301 298 299 296 292 288 285 284 286 285 285 287 288 292 297 298 298 298 298 301 304 309 311 313 313 322 317 316 320 327 330 324 318 312 306 304 290 316 72 118 300 282 290 310 255 235 225 221 222 214 203 188 189 185 167 164 172 175 184 188 200 213
296 306 305 307 303 306 311 306 306 305 311 309 310 310 311 309 307 308 309 308 305 304 302 302 297 295 295 293 286 284 286 285 286 287 287 288 291 293 294 293 294 295 297 301 304 308 304 305 308 312 317 317 317 316 325 325 324 321 309 16 73 122 168 185 227 278 298 247 252 235 233 225 221 210 197 188 182 164 158 168 173 175 182 187 202
287 294 296 300 304 303 300 303 308 310 306 306 308 307 305 303 303 302 300 301 302 304 302 300 299 296 293 292 292 286 281 284 290 290 287 285 283 284 286 289 290 291 291 294 297 300 300 301 304 306 310 315 313 315 318 326 325 350 56 67 274 190 192 212 234 205 222 257 248 243 233 234 223 215 197 179 176 178 168 163 164 172 180 184 193